Wind_Speed
10 10 9 10 9 8 6 6 7 6 9 11 12 13 14 15 15 16 15 15 14 14 15 16 17 17 16 16 15 14 14 14 12 10 9 8 7 7 8 9 9 8 7
11 11 10 11 11 9 7 7 8 6 7 8 9 11 11 11 13 14 15 16 16 14 13 13 14 15 15 15 14 13 11 10 10 9 9 8 7 7 8 9 10 10 9
12 12 11 13 13 12 9 10 10 7 8 8 9 10 10 9 10 12 14 16 16 15 13 13 13 13 12 11 10 8 7 6 7 7 7 6 5 6 6 6 8 10 11
13 13 13 15 14 12 10 11 11 9 9 7 7 8 9 9 10 11 13 14 16 16 15 15 14 12 11 10 9 8 7 7 6 6 5 3 3 5 6 6 7 8 10
14 15 16 16 14 13 12 13 12 9 10 8 5 5 6 7 10 11 11 12 14 16 17 16 16 14 13 11 10 10 10 10 9 7 5 4 5 6 7 8 8 9 10
18 19 18 17 16 15 14 13 13 13 13 10 7 5 5 5 7 9 11 12 13 14 15 16 17 17 16 15 13 13 13 11 9 7 6 6 6 7 7 8 9 10 10
22 23 22 19 17 15 14 14 14 16 13 11 10 10 7 6 6 6 7 10 13 14 15 15 16 17 17 16 17 16 14 12 11 10 9 7 7 8 8 8 9 10 11
23 25 23 21 20 19 16 16 18 17 14 12 11 12 10 8 8 8 7 9 11 13 14 14 15 16 18 17 17 18 15 13 13 12 11 10 9 10 11 11 12 12 12
24 25 25 24 22 23 21 20 20 19 18 14 11 13 14 12 12 11 11 11 12 13 12 13 15 16 17 18 19 20 18 15 14 13 12 12 11 12 14 15 15 14 14
26 27 26 23 23 24 22 22 23 22 19 17 16 15 15 14 14 14 14 13 12 14 13 14 15 15 17 18 19 20 19 17 16 15 14 13 14 15 17 18 18 18 17
25 27 26 24 24 25 24 22 23 22 20 19 18 16 15 16 15 15 15 14 14 14 15 14 14 14 14 16 17 19 19 18 18 17 16 15 17 19 20 20 20 21 21
25 27 26 27 27 27 26 23 23 22 19 19 19 17 16 17 16 16 17 17 16 16 16 15 15 15 15 16 17 18 19 19 19 18 18 18 19 20 22 22 22 23 23
26 28 27 29 27 26 27 26 27 27 24 22 22 20 20 19 18 18 18 18 16 16 16 17 18 18 17 16 16 17 18 18 19 18 18 19 21 22 24 24 22 22 23
26 27 26 28 28 27 27 27 27 27 26 25 25 24 24 24 22 20 19 18 16 16 18 19 20 19 19 18 18 18 18 18 18 17 19 21 22 24 24 23 22 22 23
22 25 25 26 27 30 31 31 30 29 28 27 27 26 25 25 23 22 22 21 19 18 19 20 21 21 20 19 20 20 19 18 18 18 20 22 23 23 22 21 21 23 25
22 25 26 26 27 29 30 30 31 31 32 31 30 30 29 26 23 22 23 23 23 22 22 22 22 22 21 20 19 19 18 18 18 19 21 23 23 21 20 20 20 23 24
23 25 27 29 29 29 29 28 28 27 27 27 27 30 32 30 25 23 23 23 24 25 25 24 23 22 22 20 18 17 17 17 18 20 21 21 18 17 18 19 20 21 21
23 24 25 26 27 27 26 25 24 21 22 23 25 28 31 29 24 21 20 22 23 23 25 25 23 21 20 20 18 17 17 16 16 17 17 16 15 16 17 18 18 18 19
22 22 22 21 22 23 23 23 22 21 20 20 21 23 24 23 22 20 19 20 21 23 25 23 21 19 18 19 18 16 16 13 13 13 14 15 15 16 16 16 16 17 17
21 20 20 21 22 21 21 21 22 23 22 20 19 19 21 23 23 21 20 20 21 22 21 20 20 19 20 20 18 16 14 11 11 12 13 14 15 16 15 14 14 13 14
19 21 20 22 24 24 21 21 22 23 23 23 23 22 24 25 25 24 21 20 20 22 21 21 21 21 23 22 19 17 14 12 11 10 11 13 15 15 14 13 11 10 9
19 19 19 19 22 23 23 22 21 22 24 26 26 26 27 27 26 24 21 19 20 22 22 21 22 23 25 24 20 18 15 13 11 10 11 13 15 15 14 12 10 9 7
21 19 18 19 20 22 23 23 22 22 23 25 28 30 30 28 27 26 23 21 21 22 22 22 22 22 23 23 21 19 17 15 13 11 12 14 16 15 13 12 11 9 7
22 20 20 19 20 22 23 24 24 24 24 25 26 28 31 31 29 26 24 23 23 23 24 24 24 23 22 21 20 19 18 16 14 12 12 14 16 15 13 12 12 12 11
25 23 22 22 21 21 23 24 24 23 24 24 25 25 28 29 28 27 26 25 25 25 25 25 25 26 25 23 21 20 19 18 15 13 13 15 16 15 14 14 14 14 14
27 26 24 24 24 22 21 24 25 24 24 24 24 24 24 25 27 28 28 27 26 26 28 28 27 29 29 27 25 23 21 19 16 15 15 16 17 16 16 17 17 16 16
Wind_Direction
259 255 239 228 225 223 219 226 226 236 251 240 243 247 237 230 226 222 218 215 214 217 218 217 217 220 226 232 237 243 248 252 254 254 255 259 262 261 261 262 267 275 286
251 256 241 222 219 215 205 221 230 237 256 236 235 243 235 225 220 214 212 211 211 211 212 216 220 226 233 239 243 245 245 246 248 252 257 260 262 260 259 261 264 270 278
244 250 238 219 220 214 214 222 234 243 264 247 236 235 230 220 215 213 211 209 208 206 206 209 213 219 223 226 227 226 228 236 242 243 244 250 254 255 258 258 260 266 273
238 241 235 224 218 221 229 224 233 247 246 249 243 231 223 212 210 210 210 212 215 213 208 207 209 209 208 208 209 208 203 203 201 201 205 225 248 256 257 253 255 261 269
233 237 235 226 222 219 222 222 235 241 231 241 250 230 214 212 211 206 204 209 216 217 216 214 212 211 210 210 213 206 195 190 188 196 212 237 255 257 255 254 255 259 266
232 234 234 227 222 216 220 224 231 233 231 236 245 232 201 210 223 214 208 209 213 216 216 217 217 219 222 225 223 211 204 205 213 226 242 261 276 279 273 265 260 257 260
233 230 231 229 225 222 224 224 226 231 234 238 245 242 228 228 244 236 219 216 219 223 224 224 225 229 231 231 226 219 217 223 233 246 257 266 280 288 290 289 282 271 261
233 228 227 229 231 225 216 216 221 232 239 246 252 247 241 239 248 248 243 232 228 228 228 229 233 234 233 231 228 226 229 237 247 258 269 276 285 292 294 295 290 282 269
232 227 223 225 229 226 224 221 224 232 240 245 251 253 253 255 256 252 250 245 241 239 235 235 239 237 234 232 232 232 236 244 250 259 272 280 284 289 292 292 285 277 270
228 224 221 223 224 224 228 229 234 239 240 246 253 255 253 256 259 256 249 246 247 249 246 242 243 241 238 237 236 238 243 250 256 261 272 282 289 292 291 289 285 279 273
224 221 219 220 220 223 226 227 234 238 238 245 250 250 248 249 249 249 249 246 247 252 256 253 248 244 244 244 243 244 247 252 258 263 271 281 289 291 289 288 286 283 279
224 220 218 220 222 224 225 225 231 235 238 242 245 247 245 246 247 248 250 252 252 250 250 253 256 255 253 251 250 250 252 256 260 265 272 280 286 287 286 285 283 280 278
225 223 222 223 226 228 227 226 229 234 240 242 242 245 244 247 253 254 252 252 256 256 252 249 253 256 257 257 257 258 260 262 262 267 275 282 286 286 285 282 278 277 277
228 227 229 227 230 229 228 231 232 234 238 241 243 244 243 246 254 256 252 250 251 254 254 251 250 254 257 261 264 264 266 263 263 270 278 284 286 286 283 278 277 279 281
243 237 235 236 237 236 233 235 239 239 239 241 243 243 239 241 247 250 248 247 248 250 253 251 251 253 257 263 266 268 266 263 266 273 279 284 286 282 276 276 281 285 288
251 244 242 243 242 238 235 236 240 243 244 243 243 241 237 238 247 251 249 248 252 253 254 251 251 254 258 263 263 266 265 266 271 278 283 285 282 274 273 279 285 286 288
249 245 247 248 245 241 238 238 239 236 238 240 239 236 236 241 248 253 251 250 254 252 251 250 247 250 257 260 259 262 267 271 278 286 286 285 278 271 273 280 284 285 285
247 251 253 246 242 238 236 233 228 228 232 231 231 230 231 236 240 245 245 247 250 248 249 246 243 248 255 259 261 265 269 275 284 286 284 281 278 276 275 279 283 285 282
254 257 250 239 234 231 231 229 228 231 234 233 228 224 225 231 234 238 243 246 247 248 248 243 238 245 253 258 261 263 267 276 282 280 279 278 279 277 273 275 279 282 280
259 258 251 243 239 238 238 238 237 236 236 237 234 227 227 229 232 238 244 244 244 243 240 237 240 247 253 255 259 263 266 269 276 275 277 278 277 273 269 270 276 279 282
262 258 253 250 247 246 247 248 243 240 238 237 236 232 230 230 234 240 241 237 237 238 246 249 249 252 255 256 258 262 260 262 269 273 278 274 271 264 260 263 267 273 282
258 253 251 251 249 248 248 250 246 241 237 236 234 233 233 232 235 237 233 229 232 238 248 255 257 256 255 252 251 254 254 255 260 265 272 267 260 252 252 254 252 256 266
260 252 248 249 249 247 246 246 242 236 232 232 232 233 234 232 233 235 233 231 234 238 245 252 256 257 252 245 243 244 245 246 248 254 264 262 251 246 246 245 239 236 241
266 258 250 247 250 248 243 238 236 231 227 227 229 233 234 229 227 231 233 233 232 235 240 246 250 254 250 240 238 241 242 241 241 244 253 255 245 240 236 232 228 222 220
267 260 250 244 245 246 242 236 232 227 224 223 224 228 228 222 223 229 235 236 234 235 236 242 247 248 244 238 236 239 242 241 238 237 241 243 239 234 226 222 220 218 216
264 256 246 239 239 242 244 241 234 230 224 221 222 223 220 219 223 228 233 236 237 238 237 238 245 246 243 236 234 237 241 240 237 234 236 236 232 228 225 222 222 221 218
Height
5850 5851 5851 5851 5852 5852 5853 5855 5855 5856 5857 5859 5859 5860 5862 5863 5865 5866 5867 5869 5870 5872 5874 5876 5879 5881 5882 5884 5885 5887 5888 5888 5888 5888 5889 5890 5890 5890 5890 5890 5891 5891 5890
5847 5849 5849 5849 5849 5850 5852 5853 5855 5856 5857 5857 5858 5858 5859 5860 5862 5863 5865 5866 5868 5870 5872 5875 5877 5879 5880 5882 5883 5884 5885 5886 5886 5886 5886 5888 5888 5888 5889 5889 5889 5889 5889
5844 5847 5847 5847 5848 5849 5851 5852 5853 5855 5856 5856 5856 5857 5858 5858 5859 5861 5863 5865 5867 5869 5871 5873 5875 5876 5878 5879 5881 5881 5882 5883 5884 5884 5885 5886 5887 5887 5887 5888 5887 5888 5888
5841 5844 5845 5845 5846 5848 5849 5850 5851 5853 5854 5855 5855 5856 5857 5857 5858 5859 5862 5864 5866 5868 5870 5871 5873 5875 5877 5878 5879 5880 5881 5882 5883 5883 5884 5885 5885 5885 5885 5886 5886 5886 5886
5838 5840 5843 5843 5844 5846 5848 5849 5850 5851 5852 5853 5854 5855 5855 5856 5857 5858 5860 5863 5864 5866 5868 5870 5872 5873 5875 5877 5878 5878 5879 5880 5882 5882 5883 5883 5883 5883 5883 5884 5884 5884 5884
5834 5836 5840 5842 5842 5843 5845 5846 5848 5850 5851 5852 5853 5854 5855 5856 5856 5857 5859 5861 5863 5864 5866 5867 5869 5871 5872 5874 5876 5877 5878 5879 5880 5880 5880 5881 5880 5880 5880 5881 5882 5882 5882
5829 5831 5836 5839 5840 5841 5842 5843 5846 5848 5850 5850 5851 5852 5854 5855 5856 5857 5858 5859 5861 5862 5863 5864 5866 5868 5870 5871 5873 5875 5876 5876 5877 5877 5877 5877 5877 5877 5878 5878 5879 5880 5881
5823 5826 5831 5834 5836 5838 5839 5841 5843 5845 5847 5848 5849 5850 5851 5854 5855 5856 5857 5858 5859 5859 5860 5862 5863 5865 5866 5868 5870 5872 5873 5873 5873 5874 5873 5873 5873 5874 5874 5875 5876 5877 5878
5818 5820 5824 5829 5832 5834 5836 5838 5840 5842 5844 5845 5846 5848 5849 5850 5852 5854 5855 5856 5857 5857 5858 5859 5860 5861 5862 5864 5866 5867 5869 5870 5870 5870 5870 5869 5869 5870 5871 5871 5872 5873 5873
5812 5814 5818 5823 5826 5829 5831 5833 5836 5838 5840 5841 5843 5845 5847 5848 5849 5850 5852 5854 5854 5854 5855 5856 5857 5857 5859 5860 5862 5863 5864 5865 5866 5866 5866 5866 5865 5866 5866 5867 5867 5867 5868
5807 5809 5812 5817 5820 5823 5826 5829 5831 5833 5835 5837 5839 5841 5843 5845 5845 5845 5847 5849 5850 5851 5851 5853 5854 5854 5855 5857 5858 5859 5860 5860 5861 5861 5862 5862 5862 5862 5862 5862 5862 5862 5862
5802 5804 5807 5811 5815 5818 5820 5823 5826 5829 5831 5833 5835 5836 5838 5841 5842 5841 5842 5844 5846 5847 5847 5849 5850 5850 5851 5852 5854 5855 5855 5856 5856 5857 5857 5858 5858 5858 5858 5857 5856 5856 5855
5797 5800 5803 5805 5808 5811 5814 5817 5821 5824 5826 5828 5830 5832 5834 5836 5837 5838 5838 5840 5841 5842 5842 5844 5846 5847 5848 5848 5849 5850 5851 5851 5852 5852 5853 5853 5853 5853 5852 5851 5850 5849 5848
5793 5794 5797 5799 5802 5804 5807 5811 5814 5817 5820 5822 5824 5826 5829 5831 5832 5834 5835 5836 5837 5838 5838 5840 5842 5842 5843 5844 5845 5845 5846 5847 5847 5847 5847 5848 5847 5846 5846 5845 5844 5843 5842
5788 5789 5791 5794 5796 5798 5800 5803 5806 5809 5813 5816 5818 5820 5823 5825 5826 5828 5830 5832 5833 5834 5835 5836 5837 5838 5838 5839 5840 5840 5841 5842 5842 5842 5841 5841 5841 5840 5839 5839 5837 5836 5835
5782 5784 5786 5788 5790 5791 5793 5796 5799 5802 5805 5808 5811 5814 5816 5818 5821 5823 5825 5827 5828 5829 5830 5832 5833 5833 5833 5835 5835 5835 5835 5836 5836 5836 5835 5834 5834 5833 5833 5833 5832 5830 5828
5776 5778 5779 5781 5782 5784 5787 5790 5792 5795 5797 5799 5802 5805 5808 5811 5814 5816 5819 5820 5822 5824 5825 5827 5828 5828 5829 5830 5830 5830 5830 5830 5830 5830 5829 5828 5827 5827 5827 5827 5826 5824 5822
5771 5772 5773 5774 5776 5778 5781 5784 5786 5788 5791 5792 5795 5798 5801 5805 5808 5810 5812 5814 5815 5817 5819 5821 5823 5824 5825 5825 5825 5825 5825 5825 5825 5825 5824 5822 5821 5821 5821 5821 5820 5819 5817
5765 5766 5767 5769 5771 5773 5776 5778 5780 5782 5784 5786 5788 5791 5795 5798 5801 5804 5806 5808 5810 5812 5814 5816 5818 5819 5820 5820 5821 5821 5820 5819 5819 5819 5819 5818 5817 5816 5816 5816 5816 5814 5813
5759 5761 5762 5764 5765 5768 5770 5772 5774 5776 5778 5780 5783 5787 5790 5792 5795 5798 5800 5803 5805 5806 5808 5811 5813 5814 5814 5815 5816 5816 5816 5815 5814 5814 5813 5812 5812 5812 5813 5813 5812 5811 5809
5754 5755 5756 5757 5759 5761 5763 5765 5767 5769 5771 5774 5778 5782 5785 5787 5790 5792 5795 5797 5799 5801 5804 5806 5807 5808 5809 5810 5811 5811 5811 5811 5810 5809 5808 5808 5809 5809 5809 5809 5809 5808 5807
5748 5749 5750 5751 5752 5754 5756 5758 5760 5762 5765 5768 5772 5775 5778 5781 5784 5787 5789 5791 5794 5796 5798 5799 5801 5802 5803 5804 5805 5806 5806 5807 5806 5806 5804 5805 5806 5806 5806 5806 5806 5806 5806
5740 5741 5743 5744 5745 5746 5748 5751 5754 5756 5758 5761 5764 5768 5771 5775 5778 5781 5783 5786 5788 5790 5792 5794 5795 5796 5797 5798 5799 5801 5801 5803 5803 5802 5801 5801 5802 5803 5803 5803 5803 5804 5804
5732 5733 5735 5737 5738 5739 5741 5744 5747 5749 5751 5754 5757 5760 5763 5767 5771 5774 5776 5780 5783 5785 5787 5788 5789 5790 5792 5793 5795 5796 5796 5798 5798 5797 5797 5798 5798 5799 5799 5800 5801 5801 5802
5724 5726 5728 5730 5732 5733 5735 5737 5740 5742 5744 5747 5750 5753 5755 5758 5762 5766 5769 5772 5775 5778 5780 5781 5783 5784 5786 5788 5790 5790 5791 5792 5793 5792 5793 5794 5794 5794 5795 5797 5799 5800 5801
5715 5717 5720 5723 5726 5727 5728 5730 5733 5735 5738 5740 5742 5745 5748 5751 5755 5759 5762 5764 5767 5770 5773 5774 5775 5777 5779 5782 5784 5785 5786 5787 5787 5788 5790 5791 5791 5791 5792 5794 5796 5797 5798